CO3D 4

Last updated on Sun Jun 21 2026 00:02:53 GMT+0000 (Coordinated Universal Time)

1 64901U 25156C 26171.41309958 .00000218 00000+0 13182-4 0 9994 2 64901 97.4331 250.0596 0000098 241.9959 118.1266 15.20197278 50026
UTC large
Height (km)
Speed (km/s)
/
Latitude / Longitude
Inclination (degrees)
Orbital Period (minutes)
Azimuth
Elevation
Range (km)
Doppler Factor

Next 0 passes for location: London (51.5072 / 0.1276)

No passes found over London.
CO3D 4